JST753 YBBN-YMLT

Flight info

Callsign JST753
Flight time 2h 20m
Altitude 36000
Route SANEG H91 ADMAR Q78 OLTIN H201 TESAT H65 WOL H20 OTKED J22 MIMIM DCT LT25A
Aircraft A321/M-SDE3FGHIRWY/LB1

Departure

Time 2026-05-04 03:32
Airport Brisbane International Airport (YBBN)

Arrival

Time 2026-05-04 05:52
Airport Launceston Airport (YMLT)
Time Latitude Longitude Altitude Speed Heading
2026-05-04 03:03 -27.38695 153.12158 18 ft 0 kts 14°
2026-05-04 03:24 -27.38717 153.12151 19 ft 4 kts 22°
2026-05-04 03:24 -27.38740 153.12137 18 ft 4 kts 46°
2026-05-04 03:24 -27.38751 153.12117 21 ft 4 kts 106°
2026-05-04 03:24 -27.38757 153.12124 20 ft 4 kts 124°
2026-05-04 03:25 -27.38768 153.12150 21 ft 4 kts 107°
2026-05-04 03:25 -27.38770 153.12157 21 ft 0 kts 104°
2026-05-04 03:27 -27.38772 153.12165 21 ft 4 kts 104°
2026-05-04 03:28 -27.38781 153.12209 19 ft 7 kts 104°
2026-05-04 03:28 -27.38804 153.12257 18 ft 8 kts 140°
2026-05-04 03:28 -27.38866 153.12263 19 ft 11 kts 201°
2026-05-04 03:28 -27.38936 153.12223 18 ft 12 kts 207°
2026-05-04 03:29 -27.39011 153.12180 18 ft 13 kts 207°
2026-05-04 03:29 -27.39092 153.12135 18 ft 14 kts 206°
2026-05-04 03:29 -27.39179 153.12085 19 ft 14 kts 208°
2026-05-04 03:29 -27.39271 153.12031 18 ft 15 kts 207°
2026-05-04 03:30 -27.39369 153.11976 18 ft 16 kts 207°
2026-05-04 03:30 -27.39474 153.11937 18 ft 16 kts 167°
2026-05-04 03:30 -27.39542 153.12034 19 ft 16 kts 121°
2026-05-04 03:30 -27.39594 153.12144 21 ft 16 kts 117°
2026-05-04 03:31 -27.39570 153.12225 20 ft 13 kts 31°
2026-05-04 03:31 -27.39472 153.12284 21 ft 30 kts 27°
2026-05-04 03:31 -27.39058 153.12521 19 ft 101 kts 26°
2026-05-04 03:31 -27.38253 153.12983 28 ft 156 kts 27°
2026-05-04 03:32 -27.37208 153.13566 391 ft 170 kts 32°
2026-05-04 03:32 -27.36328 153.14417 1138 ft 164 kts 50°
2026-05-04 03:32 -27.35595 153.15388 1851 ft 161 kts 52°
2026-05-04 03:32 -27.34831 153.16372 2186 ft 176 kts 49°
2026-05-04 03:33 -27.33959 153.17426 2441 ft 194 kts 48°
2026-05-04 03:33 -27.32985 153.18583 2694 ft 213 kts 47°
2026-05-04 03:33 -27.31910 153.19836 2877 ft 234 kts 47°
2026-05-04 03:33 -27.30718 153.21233 3214 ft 251 kts 47°
2026-05-04 03:34 -27.29500 153.22632 4053 ft 251 kts 47°
2026-05-04 03:34 -27.28562 153.24274 4725 ft 254 kts 76°
2026-05-04 03:34 -27.28505 153.26236 5496 ft 251 kts 94°
2026-05-04 03:34 -27.28549 153.28222 6163 ft 257 kts 89°
2026-05-04 03:35 -27.28487 153.30248 6856 ft 260 kts 87°
2026-05-04 03:35 -27.28376 153.32291 7513 ft 264 kts 86°
2026-05-04 03:35 -27.28261 153.34369 8173 ft 268 kts 86°
2026-05-04 03:35 -27.28143 153.36474 8850 ft 271 kts 87°
2026-05-04 03:36 -27.28362 153.38578 9452 ft 276 kts 113°
2026-05-04 03:36 -27.29547 153.40269 10015 ft 282 kts 147°
2026-05-04 03:36 -27.31383 153.40983 10562 ft 284 kts 179°
2026-05-04 03:36 -27.33365 153.40885 11108 ft 289 kts 184°
2026-05-04 03:37 -27.35393 153.40856 11649 ft 294 kts 180°
2026-05-04 03:37 -27.37450 153.40888 12215 ft 297 kts 185°
2026-05-04 03:37 -27.39511 153.40531 12569 ft 308 kts 197°
2026-05-04 03:37 -27.41617 153.39876 12707 ft 327 kts 198°
2026-05-04 03:38 -27.43871 153.39154 12841 ft 346 kts 198°
2026-05-04 03:38 -27.46204 153.38353 13230 ft 353 kts 203°
2026-05-04 03:38 -27.48407 153.37112 13685 ft 358 kts 215°
2026-05-04 03:38 -27.50411 153.35378 13896 ft 368 kts 223°
2026-05-04 03:39 -27.51736 153.34113 14179 ft 372 kts 223°
2026-05-04 03:39 -27.53717 153.32229 14676 ft 374 kts 223°
2026-05-04 03:39 -27.55611 153.30212 15177 ft 374 kts 232°
2026-05-04 03:39 -27.57119 153.27840 15689 ft 372 kts 243°
2026-05-04 03:40 -27.58285 153.25274 16211 ft 373 kts 246°
2026-05-04 03:40 -27.59449 153.22655 16759 ft 375 kts 246°
2026-05-04 03:40 -27.60727 153.20036 17289 ft 380 kts 239°
2026-05-04 03:40 -27.62437 153.17733 17826 ft 387 kts 227°
2026-05-04 03:41 -27.64580 153.15854 18347 ft 395 kts 216°
2026-05-04 03:41 -27.66958 153.14275 18798 ft 398 kts 214°
2026-05-04 03:41 -27.69358 153.12687 19256 ft 400 kts 215°
2026-05-04 03:41 -27.71730 153.11112 19710 ft 403 kts 215°
2026-05-04 03:42 -27.74151 153.09498 20179 ft 405 kts 215°
2026-05-04 03:42 -27.76582 153.07875 20636 ft 407 kts 215°
2026-05-04 03:42 -27.79061 153.06223 21091 ft 410 kts 215°
2026-05-04 03:42 -27.81537 153.04610 21520 ft 414 kts 212°
2026-05-04 03:43 -27.84177 153.03338 21933 ft 420 kts 206°
2026-05-04 03:43 -27.86913 153.02138 22355 ft 423 kts 206°
2026-05-04 03:43 -27.89659 153.00937 22766 ft 425 kts 206°
2026-05-04 03:43 -27.92427 152.99731 23174 ft 428 kts 206°
2026-05-04 03:44 -27.95209 152.98520 23577 ft 430 kts 206°
2026-05-04 03:44 -27.98008 152.97297 23920 ft 432 kts 206°
2026-05-04 03:44 -28.00815 152.96066 24268 ft 434 kts 207°
2026-05-04 03:44 -28.03635 152.94828 24609 ft 435 kts 207°
2026-05-04 03:45 -28.06466 152.93584 24960 ft 437 kts 207°
2026-05-04 03:45 -28.09305 152.92336 25309 ft 439 kts 207°
2026-05-04 03:45 -28.12155 152.91079 25646 ft 440 kts 207°
2026-05-04 03:45 -28.15011 152.89813 25980 ft 442 kts 207°
2026-05-04 03:46 -28.17878 152.88538 26324 ft 443 kts 208°
2026-05-04 03:46 -28.20757 152.87254 26659 ft 445 kts 208°
2026-05-04 03:46 -28.23641 152.85966 27001 ft 447 kts 208°
2026-05-04 03:46 -28.26541 152.84671 27337 ft 449 kts 208°
2026-05-04 03:47 -28.29452 152.83371 27669 ft 450 kts 208°
2026-05-04 03:47 -28.32374 152.82066 27992 ft 452 kts 208°
2026-05-04 03:47 -28.35307 152.80757 28316 ft 454 kts 209°
2026-05-04 03:47 -28.38251 152.79445 28618 ft 456 kts 209°
2026-05-04 03:48 -28.41210 152.78127 28931 ft 457 kts 209°
2026-05-04 03:48 -28.44174 152.76802 29222 ft 459 kts 209°
2026-05-04 03:48 -28.47152 152.75471 29534 ft 461 kts 209°
2026-05-04 03:48 -28.50139 152.74137 29839 ft 462 kts 209°
2026-05-04 03:49 -28.53142 152.72790 30170 ft 463 kts 210°
2026-05-04 03:49 -28.56136 152.71448 30527 ft 462 kts 210°
2026-05-04 03:49 -28.59117 152.70114 30911 ft 460 kts 210°
2026-05-04 03:49 -28.62091 152.68782 31310 ft 458 kts 210°
2026-05-04 03:50 -28.65047 152.67457 31708 ft 455 kts 211°
2026-05-04 03:50 -28.67984 152.66142 32113 ft 453 kts 211°
2026-05-04 03:50 -28.70907 152.64831 32508 ft 450 kts 211°
2026-05-04 03:50 -28.73811 152.63531 32911 ft 448 kts 211°
2026-05-04 03:51 -28.76700 152.62237 33291 ft 445 kts 212°
2026-05-04 03:51 -28.79580 152.60945 33690 ft 443 kts 212°
2026-05-04 03:51 -28.82435 152.59660 34067 ft 441 kts 212°
2026-05-04 03:51 -28.85253 152.58332 34368 ft 433 kts 217°
2026-05-04 03:52 -28.87911 152.56758 34648 ft 429 kts 218°
2026-05-04 03:52 -28.90550 152.55178 34903 ft 429 kts 218°
2026-05-04 03:52 -28.93190 152.53599 35159 ft 428 kts 218°
2026-05-04 03:52 -28.95829 152.52026 35410 ft 428 kts 218°
2026-05-04 03:53 -28.98471 152.50455 35669 ft 428 kts 218°
2026-05-04 03:53 -29.01110 152.48888 35900 ft 428 kts 218°
2026-05-04 03:53 -29.03753 152.47318 36058 ft 428 kts 218°
2026-05-04 03:54 -29.09024 152.44180 36103 ft 427 kts 218°
2026-05-04 03:54 -29.14282 152.41036 36100 ft 427 kts 218°
2026-05-04 03:55 -29.19544 152.37891 36101 ft 426 kts 219°
2026-05-04 03:55 -29.24805 152.34741 36097 ft 427 kts 219°
2026-05-04 03:56 -29.30030 152.31606 36103 ft 427 kts 219°
2026-05-04 03:56 -29.35293 152.28451 36111 ft 428 kts 219°
2026-05-04 03:57 -29.40566 152.25281 36116 ft 428 kts 219°
2026-05-04 03:57 -29.45846 152.22113 36114 ft 427 kts 218°
2026-05-04 03:58 -29.53746 152.17361 36121 ft 428 kts 219°
2026-05-04 03:58 -29.59017 152.14173 36122 ft 428 kts 219°
2026-05-04 03:59 -29.64291 152.10984 36120 ft 428 kts 219°
2026-05-04 03:59 -29.69609 152.07869 36126 ft 436 kts 213°
2026-05-04 04:00 -29.72557 152.06823 36119 ft 451 kts 204°
2026-05-04 04:00 -29.75620 152.06034 36128 ft 452 kts 204°
2026-05-04 04:00 -29.81757 152.04451 36120 ft 452 kts 204°
2026-05-04 04:01 -29.87892 152.02852 36116 ft 452 kts 204°
2026-05-04 04:01 -29.94034 152.01242 36120 ft 453 kts 204°
2026-05-04 04:02 -30.00168 151.99626 36122 ft 453 kts 204°
2026-05-04 04:02 -30.06317 151.98012 36125 ft 453 kts 204°
2026-05-04 04:03 -30.12462 151.96411 36096 ft 452 kts 204°
2026-05-04 04:03 -30.18604 151.94799 36097 ft 452 kts 205°
2026-05-04 04:04 -30.24736 151.93178 36090 ft 452 kts 205°
2026-05-04 04:04 -30.30830 151.91569 36089 ft 452 kts 205°
2026-05-04 04:05 -30.36971 151.89965 36090 ft 453 kts 204°
2026-05-04 04:05 -30.43143 151.88412 36093 ft 454 kts 204°
2026-05-04 04:06 -30.49316 151.86864 36092 ft 454 kts 204°
2026-05-04 04:06 -30.55493 151.85302 36098 ft 455 kts 204°
2026-05-04 04:07 -30.61672 151.83720 36097 ft 454 kts 204°
2026-05-04 04:07 -30.67844 151.82132 36092 ft 453 kts 204°
2026-05-04 04:08 -30.74008 151.80548 36095 ft 454 kts 204°
2026-05-04 04:08 -30.80177 151.78975 36095 ft 454 kts 204°
2026-05-04 04:09 -30.86338 151.77401 36097 ft 453 kts 204°
2026-05-04 04:09 -30.92501 151.75812 36096 ft 454 kts 205°
2026-05-04 04:10 -30.98663 151.74224 36100 ft 453 kts 205°
2026-05-04 04:10 -31.04818 151.72638 36099 ft 453 kts 205°
2026-05-04 04:11 -31.10969 151.71054 36103 ft 453 kts 205°
2026-05-04 04:11 -31.17120 151.69470 36105 ft 452 kts 205°
2026-05-04 04:12 -31.23250 151.67855 36100 ft 451 kts 206°
2026-05-04 04:12 -31.29331 151.66116 36102 ft 450 kts 206°
2026-05-04 04:13 -31.35397 151.64338 36098 ft 449 kts 206°
2026-05-04 04:13 -31.41434 151.62598 36101 ft 450 kts 206°
2026-05-04 04:14 -31.47510 151.60867 36091 ft 449 kts 206°
2026-05-04 04:14 -31.53575 151.59125 36097 ft 449 kts 206°
2026-05-04 04:15 -31.59634 151.57375 36087 ft 448 kts 206°
2026-05-04 04:15 -31.65688 151.55634 36092 ft 448 kts 206°
2026-05-04 04:16 -31.71749 151.53886 36088 ft 448 kts 206°
2026-05-04 04:16 -31.77810 151.52146 36088 ft 449 kts 206°
2026-05-04 04:17 -31.83872 151.50400 36084 ft 449 kts 206°
2026-05-04 04:17 -31.89932 151.48635 36081 ft 449 kts 206°
2026-05-04 04:18 -31.96000 151.46878 36076 ft 449 kts 206°
2026-05-04 04:18 -32.02080 151.45117 36080 ft 450 kts 206°
2026-05-04 04:19 -32.08156 151.43347 36070 ft 450 kts 206°
2026-05-04 04:19 -32.14247 151.41582 36070 ft 451 kts 206°
2026-05-04 04:20 -32.20342 151.39816 36065 ft 451 kts 207°
2026-05-04 04:20 -32.26431 151.38029 36059 ft 451 kts 207°
2026-05-04 04:21 -32.32527 151.36241 36051 ft 451 kts 207°
2026-05-04 04:21 -32.38624 151.34463 36051 ft 452 kts 206°
2026-05-04 04:22 -32.44725 151.32688 36047 ft 451 kts 207°
2026-05-04 04:22 -32.50817 151.30899 36045 ft 451 kts 207°
2026-05-04 04:23 -32.56917 151.29102 36040 ft 451 kts 207°
2026-05-04 04:23 -32.63003 151.27312 36042 ft 451 kts 207°
2026-05-04 04:24 -32.69097 151.25519 36039 ft 451 kts 207°
2026-05-04 04:24 -32.74162 151.24029 36042 ft 451 kts 207°
2026-05-04 04:25 -32.80257 151.22237 36039 ft 451 kts 207°
2026-05-04 04:25 -32.86341 151.20437 36045 ft 450 kts 207°
2026-05-04 04:26 -32.92415 151.18635 36034 ft 449 kts 207°
2026-05-04 04:26 -32.98483 151.16831 36036 ft 449 kts 207°
2026-05-04 04:27 -33.04550 151.15027 36035 ft 450 kts 206°
2026-05-04 04:27 -33.10624 151.13216 36039 ft 450 kts 206°
2026-05-04 04:28 -33.16701 151.11408 36034 ft 450 kts 206°
2026-05-04 04:28 -33.22774 151.09603 36040 ft 450 kts 206°
2026-05-04 04:29 -33.28859 151.07785 36035 ft 450 kts 206°
2026-05-04 04:29 -33.34937 151.05964 36036 ft 451 kts 206°
2026-05-04 04:30 -33.41026 151.04139 36039 ft 451 kts 205°
2026-05-04 04:30 -33.47112 151.02317 36045 ft 451 kts 205°
2026-05-04 04:31 -33.52364 151.00737 36045 ft 451 kts 205°
2026-05-04 04:31 -33.58448 150.98907 36048 ft 451 kts 205°
2026-05-04 04:32 -33.64508 150.97081 36044 ft 452 kts 205°
2026-05-04 04:32 -33.70610 150.95240 36040 ft 452 kts 205°
2026-05-04 04:33 -33.76716 150.93392 36037 ft 453 kts 205°
2026-05-04 04:33 -33.82824 150.91538 36033 ft 453 kts 205°
2026-05-04 04:34 -33.88951 150.89685 36036 ft 454 kts 204°
2026-05-04 04:34 -33.95086 150.87831 36037 ft 455 kts 204°
2026-05-04 04:35 -34.01225 150.85971 36033 ft 455 kts 205°
2026-05-04 04:35 -34.07365 150.84103 36035 ft 455 kts 205°
2026-05-04 04:36 -34.13506 150.82226 36033 ft 456 kts 205°
2026-05-04 04:36 -34.19655 150.80355 36033 ft 456 kts 205°
2026-05-04 04:37 -34.31955 150.76588 36032 ft 456 kts 205°
2026-05-04 04:38 -34.38108 150.74691 36031 ft 456 kts 204°
2026-05-04 04:38 -34.44261 150.72801 36034 ft 456 kts 204°
2026-05-04 04:39 -34.50414 150.70911 36024 ft 456 kts 204°
2026-05-04 04:39 -34.56573 150.69018 36026 ft 456 kts 204°
2026-05-04 04:40 -34.62727 150.67130 36017 ft 456 kts 204°
2026-05-04 04:40 -34.68881 150.65228 36020 ft 456 kts 204°
2026-05-04 04:41 -34.75031 150.63313 36017 ft 456 kts 204°
2026-05-04 04:41 -34.81191 150.61401 36015 ft 457 kts 204°
2026-05-04 04:42 -34.87350 150.59487 36014 ft 457 kts 203°
2026-05-04 04:42 -34.93465 150.57586 36015 ft 457 kts 203°
2026-05-04 04:43 -34.99627 150.55666 36012 ft 457 kts 203°
2026-05-04 04:43 -35.05789 150.53744 36007 ft 457 kts 203°
2026-05-04 04:44 -35.11990 150.51813 36003 ft 457 kts 203°
2026-05-04 04:44 -35.18112 150.49897 36009 ft 457 kts 203°
2026-05-04 04:45 -35.24305 150.47956 36010 ft 457 kts 203°
2026-05-04 04:47 -35.45798 150.41195 36000 ft 456 kts 202°
2026-05-04 04:47 -35.51947 150.39263 36001 ft 456 kts 202°
2026-05-04 04:48 -35.58092 150.37316 35993 ft 456 kts 202°
2026-05-04 04:49 -35.73455 150.32437 35986 ft 456 kts 202°
2026-05-04 04:49 -35.79603 150.30493 35984 ft 456 kts 202°
2026-05-04 04:50 -35.85754 150.28541 35980 ft 456 kts 202°
2026-05-04 04:50 -35.91895 150.26579 35980 ft 456 kts 202°
2026-05-04 04:51 -35.98035 150.24609 35974 ft 456 kts 202°
2026-05-04 04:51 -36.04177 150.22638 35976 ft 456 kts 202°
2026-05-04 04:52 -36.10323 150.20675 35970 ft 456 kts 202°
2026-05-04 04:52 -36.16467 150.18711 35972 ft 456 kts 202°
2026-05-04 04:53 -36.22571 150.16748 35963 ft 456 kts 202°
2026-05-04 04:53 -36.28712 150.14767 35963 ft 456 kts 202°
2026-05-04 04:54 -36.34851 150.12782 35958 ft 456 kts 202°
2026-05-04 04:54 -36.40996 150.10801 35963 ft 456 kts 201°
2026-05-04 04:55 -36.47136 150.08823 35964 ft 456 kts 202°
2026-05-04 04:55 -36.53284 150.06837 35953 ft 456 kts 202°
2026-05-04 04:56 -36.59427 150.04840 35946 ft 456 kts 202°
2026-05-04 04:56 -36.65574 150.02839 35953 ft 456 kts 202°
2026-05-04 04:57 -36.71717 150.00837 35942 ft 457 kts 202°
2026-05-04 04:57 -36.77863 149.98831 35941 ft 457 kts 202°
2026-05-04 04:58 -36.84019 149.96814 35938 ft 457 kts 202°
2026-05-04 04:58 -36.90176 149.94798 35937 ft 458 kts 202°
2026-05-04 04:59 -36.96344 149.92780 35934 ft 458 kts 202°
2026-05-04 04:59 -37.02520 149.90751 35939 ft 459 kts 202°
2026-05-04 05:00 -37.08696 149.88717 35936 ft 459 kts 202°
2026-05-04 05:01 -37.17923 149.85676 35938 ft 459 kts 202°
2026-05-04 05:01 -37.24103 149.83638 35940 ft 459 kts 202°
2026-05-04 05:02 -37.30285 149.81594 35943 ft 459 kts 202°
2026-05-04 05:02 -37.36463 149.79544 35953 ft 459 kts 202°
2026-05-04 05:03 -37.42649 149.77489 35925 ft 459 kts 202°
2026-05-04 05:04 -37.54968 149.73393 35928 ft 458 kts 202°
2026-05-04 05:04 -37.60978 149.70942 35932 ft 447 kts 214°
2026-05-04 05:06 -37.83010 149.56467 35958 ft 448 kts 216°
2026-05-04 05:07 -37.88537 149.52825 35966 ft 448 kts 216°
2026-05-04 05:07 -37.94071 149.49161 35959 ft 449 kts 216°
2026-05-04 05:09 -38.19033 149.32568 35962 ft 451 kts 216°
2026-05-04 05:10 -38.23653 149.29484 35969 ft 452 kts 216°
2026-05-04 05:10 -38.30129 149.25153 35965 ft 453 kts 216°
2026-05-04 05:11 -38.35705 149.21415 35961 ft 453 kts 216°
2026-05-04 05:11 -38.41292 149.17668 35965 ft 454 kts 216°
2026-05-04 05:12 -38.45974 149.14520 35967 ft 454 kts 216°
2026-05-04 05:12 -38.51561 149.10757 35968 ft 454 kts 216°
2026-05-04 05:13 -38.57160 149.06986 35972 ft 455 kts 216°
2026-05-04 05:13 -38.62757 149.03206 35969 ft 455 kts 216°
2026-05-04 05:14 -38.68358 148.99411 35971 ft 456 kts 216°
2026-05-04 05:14 -38.73964 148.95613 35968 ft 456 kts 216°
2026-05-04 05:15 -38.79572 148.91797 35979 ft 457 kts 217°
2026-05-04 05:15 -38.85148 148.87996 35966 ft 457 kts 217°
2026-05-04 05:16 -38.90766 148.84167 35964 ft 458 kts 217°
2026-05-04 05:16 -38.96397 148.80327 35960 ft 458 kts 217°
2026-05-04 05:17 -39.02026 148.76472 35966 ft 459 kts 217°
2026-05-04 05:17 -39.07659 148.72602 35967 ft 459 kts 217°
2026-05-04 05:18 -39.13300 148.68720 35962 ft 460 kts 217°
2026-05-04 05:18 -39.18945 148.64838 35948 ft 460 kts 217°
2026-05-04 05:19 -39.24607 148.60944 35938 ft 461 kts 217°
2026-05-04 05:19 -39.30273 148.57040 35932 ft 462 kts 217°
2026-05-04 05:20 -39.35947 148.53110 35933 ft 464 kts 217°
2026-05-04 05:20 -39.41636 148.49164 35936 ft 465 kts 217°
2026-05-04 05:21 -39.47338 148.45205 35936 ft 465 kts 217°
2026-05-04 05:21 -39.53046 148.41225 35934 ft 466 kts 217°
2026-05-04 05:22 -39.58770 148.37238 35936 ft 468 kts 217°
2026-05-04 05:22 -39.64502 148.33234 35931 ft 468 kts 217°
2026-05-04 05:23 -39.70245 148.29215 35935 ft 469 kts 217°
2026-05-04 05:23 -39.75993 148.25190 35931 ft 470 kts 217°
2026-05-04 05:24 -39.81752 148.21142 35941 ft 471 kts 217°
2026-05-04 05:24 -39.87489 148.17107 35942 ft 472 kts 217°
2026-05-04 05:25 -39.93299 148.13010 35940 ft 473 kts 217°
2026-05-04 05:25 -39.99048 148.08954 35942 ft 473 kts 217°
2026-05-04 05:26 -40.04873 148.04821 35937 ft 473 kts 217°
2026-05-04 05:26 -40.10690 148.00861 35932 ft 481 kts 211°
2026-05-04 05:28 -40.35637 147.87333 35909 ft 496 kts 209°
2026-05-04 05:29 -40.42032 147.83851 35894 ft 498 kts 209°
2026-05-04 05:29 -40.48441 147.80353 35837 ft 500 kts 209°
2026-05-04 05:31 -40.68874 147.63610 31083 ft 480 kts 234°
2026-05-04 05:31 -40.71168 147.60431 30564 ft 477 kts 234°
2026-05-04 05:32 -40.73436 147.57271 30052 ft 474 kts 235°
2026-05-04 05:32 -40.75692 147.54121 29490 ft 470 kts 235°
2026-05-04 05:32 -40.77923 147.51006 28986 ft 465 kts 235°
2026-05-04 05:33 -40.82325 147.44881 27976 ft 455 kts 234°
2026-05-04 05:33 -40.84490 147.41868 27480 ft 450 kts 234°
2026-05-04 05:33 -40.86632 147.38878 26993 ft 446 kts 234°
2026-05-04 05:33 -40.88749 147.35913 26515 ft 441 kts 235°
2026-05-04 05:34 -40.90843 147.32973 26048 ft 437 kts 235°
2026-05-04 05:34 -40.92914 147.30063 25591 ft 433 kts 235°
2026-05-04 05:34 -40.94968 147.27178 25140 ft 429 kts 234°
2026-05-04 05:34 -40.97009 147.24313 24700 ft 426 kts 234°
2026-05-04 05:35 -40.99034 147.21466 24262 ft 423 kts 234°
2026-05-04 05:35 -41.01043 147.18638 23830 ft 421 kts 234°
2026-05-04 05:35 -41.03015 147.15856 23403 ft 418 kts 234°
2026-05-04 05:35 -41.04998 147.13060 22939 ft 416 kts 234°
2026-05-04 05:36 -41.06969 147.10283 22505 ft 412 kts 234°
2026-05-04 05:36 -41.08919 147.07530 22098 ft 408 kts 234°
2026-05-04 05:36 -41.10851 147.04795 21658 ft 404 kts 234°
2026-05-04 05:36 -41.12762 147.02089 21233 ft 400 kts 234°
2026-05-04 05:37 -41.14663 146.99401 20783 ft 397 kts 234°
2026-05-04 05:37 -41.16544 146.96739 20340 ft 394 kts 233°
2026-05-04 05:37 -41.18411 146.94091 19894 ft 391 kts 233°
2026-05-04 05:38 -41.22096 146.88852 19006 ft 385 kts 233°
2026-05-04 05:38 -41.23914 146.86259 18540 ft 383 kts 232°
2026-05-04 05:38 -41.25721 146.83679 18078 ft 380 kts 232°
2026-05-04 05:38 -41.27517 146.81115 17588 ft 377 kts 232°
2026-05-04 05:39 -41.29328 146.78622 17068 ft 377 kts 225°
2026-05-04 05:39 -41.34291 146.76676 16118 ft 387 kts 172°
2026-05-04 05:39 -41.36789 146.77902 15679 ft 384 kts 146°
2026-05-04 05:40 -41.40546 146.82802 14753 ft 377 kts 129°
2026-05-04 05:40 -41.42239 146.85451 14260 ft 374 kts 130°
2026-05-04 05:40 -41.43986 146.88016 13772 ft 373 kts 133°
2026-05-04 05:41 -41.45811 146.90456 13235 ft 370 kts 135°
2026-05-04 05:41 -41.47690 146.92771 12750 ft 366 kts 137°
2026-05-04 05:41 -41.49596 146.95003 12264 ft 363 kts 139°
2026-05-04 05:41 -41.51503 146.97191 11780 ft 360 kts 139°
2026-05-04 05:42 -41.53391 146.99355 11316 ft 357 kts 138°
2026-05-04 05:42 -41.55265 147.01518 10844 ft 354 kts 138°
2026-05-04 05:42 -41.57085 147.03643 10472 ft 349 kts 137°
2026-05-04 05:42 -41.58877 147.05749 10250 ft 335 kts 137°
2026-05-04 05:43 -41.60592 147.07776 10060 ft 317 kts 137°
2026-05-04 05:43 -41.62198 147.09682 9661 ft 311 kts 137°
2026-05-04 05:43 -41.63796 147.11580 9497 ft 307 kts 137°
2026-05-04 05:45 -41.74931 147.24851 6245 ft 288 kts 137°
2026-05-04 05:45 -41.76264 147.26713 6155 ft 268 kts 117°
2026-05-04 05:47 -41.70599 147.34915 4130 ft 183 kts 327°
2026-05-04 05:47 -41.69570 147.34017 3886 ft 171 kts 327°
2026-05-04 05:47 -41.68591 147.33175 3652 ft 163 kts 328°
2026-05-04 05:48 -41.67663 147.32378 3443 ft 154 kts 327°
2026-05-04 05:48 -41.66788 147.31628 3232 ft 146 kts 327°
2026-05-04 05:48 -41.65945 147.30903 3038 ft 143 kts 328°
2026-05-04 05:48 -41.65107 147.30182 2846 ft 143 kts 328°
2026-05-04 05:49 -41.64273 147.29466 2660 ft 141 kts 327°
2026-05-04 05:49 -41.63454 147.28765 2474 ft 139 kts 327°
2026-05-04 05:49 -41.62648 147.28072 2303 ft 139 kts 328°
2026-05-04 05:49 -41.61827 147.27367 2107 ft 140 kts 327°
2026-05-04 05:51 -41.56134 147.22482 811 ft 131 kts 330°
2026-05-04 05:51 -41.55362 147.21827 670 ft 132 kts 330°
2026-05-04 05:52 -41.54603 147.21188 594 ft 118 kts 328°
2026-05-04 05:52 -41.54131 147.20780 590 ft 32 kts 329°
2026-05-04 05:52 -41.54038 147.20654 590 ft 16 kts 267°
2026-05-04 05:52 -41.54093 147.20565 584 ft 10 kts 185°
2026-05-04 05:53 -41.54161 147.20613 584 ft 12 kts 147°
2026-05-04 05:54 -41.54265 147.20641 583 ft 0 kts 295°